Location: Killam
(52.7910°N, 111.8608°W)
Time: 13:43:18
(UTC+00:00)

BlueWalker 3 - Pass Details

Date: 22 January 2026
Orbit: 450 x 461 km, 53.2° (Epoch: 11 February)

Event Time Altitude Azimuth Distance (km) Brightness Sun altitude
Rises 02:45:55 0° 227° (SW) 2,449 6.1 -25.6°
Reaches altitude 10° 02:48:08 10° 219° (SW) 1,579 4.9 -26.0°
Enters shadow 02:49:04 16° 211° (SSW) 1,238 4.2 -26.1°
